Weather History for Easton, MD

Change the Weather History Date:

Sunday, March 2, 2014

  Actual Average Record
Temperature  
Mean Temperature 45 °F -  
Max Temperature 57 °F 56 °F 75 °F (1972)
Min Temperature 35 °F 33 °F 12 °F (1967)
Degree Days  
Heating Degree Days 20    
Moisture  
Dew Point 34 °F    
Average Humidity 78    
Maximum Humidity 100    
Minimum Humidity 44    
Precipitation  
Precipitation 0.11 in - - ()
Sea Level Pressure  
Sea Level Pressure 30.10 in    
Wind  
Wind Speed 4 mph (SSE)    
Max Wind Speed 10 mph    
Max Gust Speed -    
Visibility 9 miles    
Events Rain    
Averages and records for this station are not official NWS values.
T = Trace of Precipitation, MM = Missing Value Source: NWS Daily Summary

Daily Weather History Graph

Daily Weather History Graph

Search for Another Location

Airport:

Trip Planner

Search our weather history database for the weather conditions in past years. The results will help you decide how hot, cold, wet, or windy it might be!

Date:

Astronomy

Mar. 02, 2014 Rise Set
Actual Time 6:35 AM EST 5:58 PM EST
Civil Twilight 6:08 AM EST 6:24 PM EST
Nautical Twilight 5:37 AM EST 6:55 PM EST
Astronomical Twilight 5:06 AM EST 7:26 PM EST
Moon 7:06 AM EST (3/2) 7:50 PM EST (3/2)
Length of Visible Light 12h 16m
Length of Day
11h 22m
Waxing Crescent, 3% of the Moon is Illuminated
Mar 2
Waxing Crescent
Mar 8
First Quarter
Mar 16
Full
Mar 23
Last Quarter
Mar 30
New

Hourly Weather History & Observations

Time (EST) Temp. Windchill Dew Point Humidity Pressure Visibility Wind Dir Wind Speed Gust Speed Precip Events Conditions
12:16 AM 36.0 °F 33.3 °F 24.4 °F 63% 30.22 in 10.0 mi South 3.5 mph - N/A   Clear
12:36 AM 35.6 °F - 25.2 °F 66% 30.21 in 10.0 mi Calm Calm - N/A   Scattered Clouds
12:56 AM 35.2 °F 32.4 °F 26.4 °F 70% 30.21 in 10.0 mi South 3.5 mph - N/A   Mostly Cloudy
1:16 AM 36.9 °F - 28.4 °F 71% 30.21 in 10.0 mi Calm Calm - N/A   Overcast
1:37 AM 38.1 °F 33.7 °F 29.7 °F 72% 30.19 in 10.0 mi South 5.8 mph - N/A   Overcast
1:57 AM 38.5 °F 34.1 °F 30.9 °F 74% 30.18 in 10.0 mi SSW 5.8 mph - N/A   Overcast
2:17 AM 38.3 °F 35.9 °F 31.6 °F 77% 30.17 in 10.0 mi SSW 3.5 mph - N/A   Overcast
2:37 AM 38.7 °F 36.3 °F 32.0 °F 77% 30.16 in 10.0 mi SSW 3.5 mph - N/A   Overcast
2:57 AM 38.5 °F 36.1 °F 32.0 °F 78% 30.16 in 10.0 mi SSW 3.5 mph - N/A   Overcast
3:17 AM 38.8 °F 36.5 °F 32.9 °F 79% 30.15 in 10.0 mi South 3.5 mph - N/A   Overcast
3:37 AM 38.5 °F - 32.7 °F 80% 30.15 in 10.0 mi Calm Calm - N/A   Overcast
3:57 AM 38.3 °F 35.9 °F 32.7 °F 80% 30.15 in 10.0 mi South 3.5 mph - N/A   Mostly Cloudy
4:17 AM 37.4 °F - 32.7 °F 83% 30.15 in 10.0 mi Calm Calm - N/A   Scattered Clouds
4:37 AM 37.0 °F 34.5 °F 32.5 °F 84% 30.14 in 10.0 mi South 3.5 mph - N/A   Clear
4:57 AM 36.0 °F 32.1 °F 32.4 °F 87% 30.14 in 10.0 mi South 4.6 mph - N/A   Clear
5:17 AM 36.3 °F 32.5 °F 32.4 °F 86% 30.13 in 10.0 mi South 4.6 mph - N/A   Clear
5:23 AM 35.8 °F 33.0 °F 32.5 °F 88% 30.13 in 10.0 mi South 3.5 mph - N/A   Clear
5:55 AM 37.4 °F 33.8 °F 32.0 °F 81% 30.13 in 10.0 mi South 4.6 mph - N/A   Scattered Clouds
6:50 AM 39.2 °F 37.0 °F 32.0 °F 75% 30.11 in 10.0 mi SSW 3.5 mph - N/A   Scattered Clouds
7:46 AM 41.0 °F 35.2 °F 32.0 °F 70% 30.12 in 10.0 mi SSW 9.2 mph - N/A   Scattered Clouds
8:50 AM 46.4 °F 42.9 °F 33.8 °F 62% 30.13 in 10.0 mi West 6.9 mph - N/A   Scattered Clouds
9:50 AM 50.0 °F - 32.0 °F 50% 30.08 in 10.0 mi SSW 9.2 mph - N/A   Scattered Clouds
10:50 AM 55.4 °F - 33.8 °F 44% 30.08 in 10.0 mi WSW 4.6 mph - N/A   Scattered Clouds
11:50 AM 55.4 °F - 33.8 °F 44% 30.05 in 10.0 mi WSW 3.5 mph - N/A   Overcast
12:10 PM 55.4 °F - 33.8 °F 44% 30.05 in 10.0 mi North 10.4 mph - N/A   Overcast
12:45 PM 53.6 °F - 32.0 °F 44% 30.04 in 10.0 mi North 3.5 mph - N/A   Overcast
1:49 PM 51.8 °F - 32.0 °F 47% 30.01 in 10.0 mi NNE 10.4 mph - N/A   Overcast
2:50 PM 48.2 °F - 30.2 °F 50% 30.02 in 7.0 mi NNE 9.2 mph - N/A Rain Light Rain
3:50 PM 42.8 °F 37.5 °F 35.6 °F 76% 30.07 in 3.0 mi North 9.2 mph - N/A Rain Light Rain
4:50 PM 39.2 °F 34.2 °F 37.4 °F 93% 30.07 in 3.0 mi NNE 6.9 mph - N/A Rain Light Rain
5:50 PM 39.2 °F 35.9 °F 39.2 °F 100% 30.06 in 3.0 mi NE 4.6 mph - N/A   Drizzle
6:50 PM 39.2 °F 35.9 °F 39.2 °F 100% 30.05 in 3.0 mi NE 4.6 mph - N/A   Overcast
7:50 PM 39.2 °F 35.0 °F 39.2 °F 100% 30.06 in 3.0 mi North 5.8 mph - N/A Rain Light Rain
8:53 PM 37.4 °F 32.8 °F 37.4 °F 100% 30.04 in 3.0 mi NNE 5.8 mph - N/A Rain Light Rain
9:39 PM 38.1 °F 32.9 °F 38.1 °F 100% 30.04 in - NE 6.9 mph - 0.01 in   Overcast
9:59 PM 37.9 °F 34.4 °F 37.9 °F 100% 30.06 in - NNE 4.6 mph - 0.04 in   Overcast
10:19 PM 37.9 °F 34.4 °F 37.9 °F 100% 30.05 in - NE 4.6 mph - 0.01 in   Overcast
10:39 PM 37.8 °F 33.3 °F 37.8 °F 100% 30.05 in - NNE 5.8 mph - 0.03 in   Overcast
10:59 PM 37.8 °F 35.3 °F 37.8 °F 100% 30.04 in - NE 3.5 mph - 0.04 in   Overcast
11:19 PM 37.8 °F 35.3 °F 37.8 °F 100% 30.03 in - NE 3.5 mph - 0.01 in   Overcast
11:39 PM 37.8 °F - 37.8 °F 100% 30.03 in - Calm Calm - 0.02 in   Overcast
11:59 PM 37.6 °F 34.0 °F 37.6 °F 100% 30.03 in - NNE 4.6 mph - 0.03 in   Overcast